Overview Statistics Trail Chart Weather Telemetry Raw packets
 

This is the latest recevied weather packets stored in our database for station/object K7PMV-13. If no packets are shown the sender has not sent any weather packets the latest 10 day(s).

<< 40 41 42 43 44 45 46 >>
Time Temp. Humidity Pressure Rain* Wind** Luminosity Snow
1777401378 26.67° C 22% 1013.2 hPa 0 mm - 947 W/m² -
1777400591 26.11° C 25% 1013.3 hPa 0 mm - 916 W/m² -
1777400288 25.56° C 25% 1013.5 hPa 0 mm - 879 W/m² -
1777399986 26.11° C 25% 1013.4 hPa 0 mm - 828 W/m² -
1777399675 25.56° C 27% 1013.4 hPa 0 mm - 765 W/m² -
1777399372 25° C 26% 1013.5 hPa 0 mm - 714 W/m² -
1777399070 25° C 25% 1013.6 hPa 0 mm - 408 W/m² -
1777398768 24.44° C 26% 1013.6 hPa 0 mm - 497 W/m² -
1777398465 24.44° C 26% 1013.7 hPa 0 mm - 719 W/m² -
1777398156 24.44° C 26% 1013.7 hPa 0 mm - 770 W/m² -
1777397853 25° C 27% 1013.8 hPa 0 mm - 800 W/m² -
1777397550 25° C 26% 1013.8 hPa 0 mm - 819 W/m² -
1777397240 24.44° C 27% 1013.8 hPa 0 mm - 830 W/m² -
1777396931 23.89° C 27% 1013.8 hPa 0 mm - 831 W/m² -
1777396628 23.89° C 26% 1013.7 hPa 0 mm - 823 W/m² -
1777396326 23.89° C 28% 1013.7 hPa 0 mm - 812 W/m² -
1777396023 23.33° C 27% 1013.8 hPa 0 mm - 803 W/m² -
1777395721 23.33° C 28% 1013.8 hPa 0 mm - 791 W/m² -
1777395418 22.78° C 29% 1013.8 hPa 0 mm - 780 W/m² -
1777395115 22.78° C 29% 1013.8 hPa 0 mm - 768 W/m² -
1777394805 22.22° C 30% 1013.9 hPa 0 mm - 752 W/m² -
1777394503 22.22° C 30% 1013.8 hPa 0 mm - 740 W/m² -
1777394200 22.22° C 30% 1013.8 hPa 0 mm - 721 W/m² -
1777393897 22.22° C 31% 1013.9 hPa 0 mm - 707 W/m² -
1777393595 21.67° C 31% 1013.9 hPa 0 mm - 696 W/m² -

* Rain latest hour (hover to see other rain measurements)
** Current wind speed in m/s (hover to see current wind gust speed)